Overview Statistics Trail Chart Weather Telemetry Raw packets
 

This is the latest recevied weather packets stored in our database for station/object UIBB. If no packets are shown the sender has not sent any weather packets the latest 10 day(s).

<< 31 32 33 34 35 36 37 >>
Time Temp. Humidity Pressure Rain* Wind** Luminosity Snow
1787983425 17.78° C 67% 1015 hPa - - - -
1787982828 17.78° C 67% 1015 hPa - - - -
1787982228 17.78° C 67% 1015 hPa - - - -
1787981625 18.89° C 63% 1015 hPa - - - -
1787981025 18.89° C 63% 1015 hPa - - - -
1787980426 18.89° C 63% 1015 hPa - - - -
1787979825 17.78° C 67% 1015 hPa - - - -
1787979224 17.78° C 67% 1015 hPa - - - -
1787978628 17.78° C 67% 1015 hPa - - - -
1787978029 17.78° C 67% 1015 hPa - - - -
1787977428 17.78° C 67% 1015 hPa - - - -
1787976826 17.78° C 67% 1015 hPa - - - -
1787976228 16.67° C 72% 1015 hPa - - - -
1787975630 16.67° C 72% 1015 hPa - - - -
1787975029 16.67° C 72% 1015 hPa - - - -
1787974426 15.56° C 77% 1015 hPa - - - -
1787973826 15.56° C 77% 1015 hPa - - - -
1787973226 15.56° C 77% 1015 hPa - - - -
1787972627 15° C 87% 1015 hPa - - - -
1787972031 15° C 87% 1015 hPa - - - -
1787971426 15° C 87% 1015 hPa - - - -
1787970827 15° C 93% 1015 hPa - - - -
1787970226 15° C 93% 1015 hPa - - - -
1787969627 15° C 93% 1015 hPa - - - -
1787969029 12.78° C 100% 1015 hPa - - - -

* Rain since midnight (hover to see other rain measurements)
** Current wind speed in m/s (hover to see current wind gust speed)